1498935600.36,18827,17.19,73666.3,2.29,-10.63,-9.79,0,*43
1498935601.6,18828,17.19,73674.3,2.29,-10.63,-9.79,0,*4C
1498935602.86,18829,17.19,73672.0,2.29,-10.67,-9.93,0,*4D
1498935604.1,18830,17.19,73672.3,2.29,-10.75,-9.93,0,*46
1498935605.32,18831,17.19,73670.3,2.29,-10.85,-9.97,0,*4C
1498935606.53,18832,17.19,73668.0,2.27,-10.97,-10.05,0,*71
1498935607.76,18833,17.19,73666.0,2.29,-10.97,-10.15,0,*7F
1498935608.96,18834,17.19,73670.0,2.27,-11.15,-10.23,0,*78
1498935610.2,18835,17.19,73666.8,2.29,-11.23,-10.27,0,*76
1498935611.48,18836,17.19,73666.5,2.29,-11.33,-10.41,0,*74
1498935612.73,18837,17.19,73662.3,2.29,-11.37,-10.49,0,*79
1498935613.93,18838,17.19,73660.0,2.27,-11.41,-10.53,0,*72
1498935615.16,18839,17.19,73664.5,2.27,-11.51,-10.57,0,*76
1498935616.43,18840,17.19,73672.8,2.27,-11.63,-10.67,0,*7A
1498935617.69,18841,17.19,73668.3,2.27,-11.67,-10.67,0,*7F
1498935618.96,18842,17.19,73660.8,2.29,-11.77,-10.79,0,*7C
1498935620.24,18843,17.19,73660.5,2.29,-11.89,-10.79,0,*7C
1498935621.52,18844,17.19,73658.0,2.29,-11.89,-10.79,0,*7B
1498935622.75,18845,17.19,73656.3,2.27,-12.07,-10.97,0,*71
1498935623.97,18846,17.19,73648.0,2.27,-12.21,-10.97,0,*76
1498935625.18,18847,17.19,73648.3,2.27,-12.21,-10.97,0,*77
1498935626.39,18848,17.19,73652.5,2.27,-12.25,-10.97,0,*7C
1498935627.6,18849,17.19,73654.5,2.27,-12.25,-10.97,0,*7D
1498935628.82,18850,17.19,73654.3,2.27,-12.25,-10.97,0,*75
1498935630.05,18851,17.19,73658.3,2.27,-12.25,-10.67,0,*7B
1498935631.29,18852,17.19,73662.5,2.27,-12.21,-10.63,0,*78
1498935632.55,18853,17.19,73658.5,2.27,-12.35,-10.71,0,*7F
1498935633.76,18854,17.19,73662.8,2.27,-12.25,-10.57,0,*7D
1498935634.99,18855,17.19,73648.5,2.27,-12.35,-10.57,0,*7D
1498935636.19,18856,17.19,73648.3,2.27,-12.47,-10.57,0,*7B
1498935637.4,18857,17.19,73648.3,2.27,-12.47,-10.57,0,*7A
1498935638.63,18858,17.19,73650.8,2.29,-12.47,-10.49,0,*74
1498935639.88,18859,17.19,73652.8,2.29,-12.57,-10.49,0,*74
1498935641.1,18860,17.19,73650.3,2.27,-12.65,-10.53,0,*7A
1498935642.34,18861,17.19,73644.0,2.27,-12.71,-10.53,0,*7E
1498935643.59,18862,17.19,73642.8,2.29,-12.65,-10.49,0,*7D
1498935644.81,18863,17.19,73646.5,2.27,-12.65,-10.45,0,*7E
1498935646.04,18864,17.19,73646.0,2.27,-12.83,-10.53,0,*76
1498935647.3,18865,17.19,73644.8,2.29,-12.75,-10.49,0,*7B
1498935648.5,18866,17.19,73648.8,2.27,-12.97,-10.53,0,*71
1498935649.71,18867,17.19,73648.0,2.27,-12.97,-10.45,0,*77
1498935650.92,18868,17.19,73644.0,2.27,-12.97,-10.57,0,*7B
1498935652.12,18869,17.19,73642.5,2.27,-13.07,-10.57,0,*72
1498935653.32,18870,17.19,73644.8,2.27,-13.11,-10.57,0,*7D
1498935654.55,18871,17.19,73648.0,2.27,-13.11,-10.71,0,*78
1498935655.76,18872,17.19,73646.3,2.27,-13.07,-10.57,0,*78
1498935656.99,18873,17.19,73648.5,2.27,-13.07,-10.67,0,*7A
1498935658.22,18874,17.19,73650.3,2.27,-13.07,-10.71,0,*7A
1498935659.45,18875,17.19,73652.8,2.27,-13.11,-10.71,0,*7C
1498935660.68,18876,17.19,73658.5,2.27,-13.19,-10.79,0,*7F
1498935661.88,18877,17.19,73656.8,2.27,-13.07,-10.85,0,*72
1498935663.08,18878,17.19,73656.0,2.27,-13.19,-10.85,0,*72
1498935664.31,18879,17.19,73658.8,2.27,-13.33,-11.01,0,*76
1498935665.54,18880,17.19,73646.0,2.27,-13.33,-11.15,0,*75
1498935666.77,18881,17.19,73650.0,2.25,-13.19,-11.11,0,*7A
1498935668.02,18882,17.19,73650.3,2.25,-13.33,-11.15,0,*75
1498935669.27,18883,17.19,73646.0,2.27,-13.37,-11.29,0,*7D
1498935670.48,18884,17.19,73646.3,2.23,-13.51,-11.41,0,*70
1498935671.74,18885,17.19,73646.0,2.25,-13.37,-11.41,0,*77
1498935672.99,18886,17.19,73646.3,2.27,-13.37,-11.51,0,*77
1498935674.22,18887,17.19,73636.0,2.27,-13.47,-11.63,0,*70
1498935675.45,18888,17.19,73636.5,2.27,-13.47,-11.67,0,*7B
1498935676.71,18889,17.19,73634.8,2.25,-13.51,-11.67,0,*7F
1498935677.97,18890,17.19,73630.8,2.25,-13.51,-11.67,0,*77
1498935679.2,18891,17.19,73628.3,2.23,-13.51,-11.81,0,*78
1498935680.43,18892,17.19,73628.5,2.23,-13.51,-11.81,0,*7B
1498935681.71,18893,17.19,73630.5,2.25,-13.37,-11.85,0,*78
1498935682.96,18894,17.19,73636.5,2.25,-13.23,-11.81,0,*7E
1498935684.18,18895,17.19,73636.3,2.23,-13.23,-11.81,0,*79
1498935685.43,18896,17.19,73640.8,2.25,-13.23,-11.81,0,*7C
1498935686.69,18897,17.19,73644.8,2.25,-13.23,-11.85,0,*79
1498935687.94,18898,17.19,73640.5,2.25,-13.19,-11.85,0,*7F
1498935689.2,18899,17.19,73642.3,2.25,-13.19,-11.85,0,*7E
1498935690.43,18900,17.19,73642.3,2.23,-13.23,-11.89,0,*7C
1498935691.69,18901,17.19,73642.5,2.25,-13.19,-11.93,0,*79
1498935692.92,18902,17.19,73644.0,2.23,-13.23,-11.89,0,*7E
1498935694.17,18903,17.19,73648.3,2.25,-13.19,-11.81,0,*78
1498935695.4,18904,17.19,73650.5,2.23,-13.23,-11.81,0,*70
1498935696.64,18905,17.19,73654.8,2.25,-13.11,-11.81,0,*76
1498935697.89,18906,17.19,73654.3,2.25,-13.11,-11.81,0,*75
1498935699.11,18907,17.19,73656.8,2.23,-13.15,-11.85,0,*72
1498935700.36,18908,17.19,73662.3,2.25,-13.11,-11.77,0,*72
1498935701.61,18909,17.19,73658.8,2.25,-13.11,-11.77,0,*73
1498935702.83,18910,17.19,73662.8,2.23,-13.23,-11.81,0,*75
1498935704.09,18911,17.19,73658.8,2.25,-13.23,-11.77,0,*7B
1498935705.34,18912,17.19,73656.8,2.23,-13.37,-11.73,0,*7F
1498935706.59,18913,17.19,73664.3,2.23,-13.37,-11.67,0,*7B
1498935707.81,18914,17.19,73664.3,2.23,-13.43,-11.59,0,*72
1498935709.07,18915,17.19,73664.8,2.23,-13.37,-11.55,0,*7C
1498935710.3,18916,17.19,73670.3,2.23,-13.43,-11.55,0,*7C
1498935711.5,18917,17.19,73670.8,2.23,-13.55,-11.41,0,*7F
1498935712.7,18918,17.19,73672.0,2.23,-13.55,-11.19,0,*7D
1498935713.9,18919,17.19,73670.0,2.23,-13.69,-11.15,0,*7F
1498935715.13,18920,17.19,73666.0,2.25,-13.65,-11.15,0,*7F
1498935716.33,18921,17.19,73670.0,2.23,-13.73,-11.01,0,*7A
1498935717.53,18922,17.19,73668.5,2.23,-13.73,-11.01,0,*79
1498935718.79,18923,17.19,73668.8,2.21,-13.83,-10.89,0,*74
1498935720.02,18924,17.19,73668.8,2.21,-13.73,-10.89,0,*7C
1498935721.28,18925,17.19,73662.5,2.23,-13.83,-10.75,0,*73
1498935722.57,18926,17.19,73666.3,2.21,-13.83,-10.75,0,*72
1498935723.8,18927,17.19,73664.8,2.23,-13.73,-10.75,0,*7E
1498935725.06,18928,17.19,73666.0,2.21,-13.69,-10.63,0,*7F
1498935726.32,18929,17.19,73666.0,2.21,-13.65,-10.63,0,*72
1498935727.57,18930,17.19,73660.5,2.21,-13.65,-10.71,0,*79
1498935728.81,18931,17.19,73664.0,2.21,-13.51,-10.57,0,*7B
1498935730.04,18932,17.19,73666.3,2.21,-13.43,-10.57,0,*7B
1498935731.3,18933,17.19,73666.3,2.21,-13.37,-10.57,0,*79
1498935732.56,18934,17.19,73666.0,2.21,-13.29,-10.49,0,*7E
1498935733.79,18935,17.19,73666.0,2.21,-13.23,-10.57,0,*7A
1498935735.03,18936,17.19,73666.0,2.21,-13.23,-10.57,0,*79
1498935736.28,18937,17.19,73666.3,2.21,-13.15,-10.63,0,*7A
1498935737.54,18938,17.19,73666.8,2.21,-13.15,-10.75,0,*72
1498935738.76,18939,17.19,73664.3,2.21,-13.11,-10.85,0,*78
1498935739.99,18940,17.19,73664.8,2.21,-13.15,-10.89,0,*7E
1498935741.21,18941,17.19,73664.0,2.19,-13.33,-11.11,0,*70
1498935742.41,18942,17.19,73664.3,2.19,-13.43,-11.23,0,*75
1498935743.65,18943,17.19,73666.8,2.21,-13.51,-11.41,0,*78
1498935744.91,18944,17.19,73670.3,2.21,-13.55,-11.55,0,*7E
1498935746.16,18945,17.19,73666.3,2.21,-13.73,-11.73,0,*7F
1498935747.41,18946,17.19,73672.3,2.19,-13.87,-11.77,0,*78
1498935748.69,18947,17.19,73670.0,2.21,-13.87,-11.85,0,*7F
1498935749.89,18948,17.19,73670.0,2.19,-13.93,-12.03,0,*73
1498935751.15,18949,17.19,73668.3,2.19,-13.97,-12.07,0,*72
1498935752.41,18950,17.19,73666.0,2.21,-13.97,-12.03,0,*75
1498935753.65,18951,17.19,73660.8,2.19,-14.01,-12.03,0,*77
1498935754.89,18952,17.19,73662.3,2.19,-14.15,-12.07,0,*75
1498935756.1,18953,17.19,73648.5,2.19,-14.15,-12.03,0,*70
1498935757.36,18954,17.19,73646.5,2.21,-14.11,-11.97,0,*76
1498935758.64,18955,17.19,73638.5,2.21,-14.01,-11.81,0,*71
1498935759.87,18956,17.19,73638.3,2.19,-14.19,-11.85,0,*74
1498935761.13,18957,17.19,73632.5,2.21,-14.23,-11.59,0,*76
1498935762.36,18958,17.19,73636.3,2.19,-14.29,-11.63,0,*71
1498935763.64,18959,17.19,73640.0,2.21,-14.51,-11.73,0,*75
1498935764.9,18960,17.19,73638.3,2.21,-14.61,-11.67,0,*79
1498935766.15,18961,17.19,73638.5,2.21,-14.61,-11.73,0,*7D
1498935767.4,18962,17.19,73634.0,2.19,-14.79,-11.73,0,*7C
1498935768.68,18963,17.19,73640.8,2.21,-14.75,-11.55,0,*7E
1498935769.96,18964,17.19,73642.5,2.21,-14.75,-11.59,0,*75
1498935771.23,18965,17.19,73646.3,2.21,-14.75,-11.55,0,*78
1498935772.49,18966,17.19,73646.5,2.21,-14.75,-11.41,0,*7E
1498935773.71,18967,17.19,73644.8,2.23,-14.75,-11.41,0,*7D
1498935774.93,18968,17.19,73640.3,2.23,-14.69,-11.33,0,*7A
1498935776.2,18969,17.19,73650.8,2.21,-14.75,-11.33,0,*74
1498935777.42,18970,17.19,73648.0,2.19,-14.65,-11.37,0,*72
1498935778.69,18971,17.19,73648.8,2.21,-14.75,-11.33,0,*7D
1498935779.91,18972,17.19,73654.8,2.23,-14.75,-11.45,0,*7D
1498935781.14,18973,17.19,73652.3,2.23,-14.83,-11.45,0,*75
1498935782.41,18974,17.19,73656.5,2.21,-14.75,-11.33,0,*78
1498935783.66,18975,17.19,73662.8,2.21,-14.69,-11.29,0,*7F
1498935784.9,18976,17.19,73656.8,2.23,-14.75,-11.33,0,*78
1498935786.15,18977,17.19,73660.0,2.23,-14.75,-11.29,0,*72
1498935787.4,18978,17.19,73660.5,2.23,-14.75,-11.29,0,*7D
1498935788.59,18979,17.19,73666.8,2.23,-14.69,-11.15,0,*7E
1498935789.85,18980,17.19,73666.8,2.21,-14.61,-11.07,0,*71
1498935791.1,18981,17.19,73668.5,2.21,-14.61,-11.07,0,*70
1498935792.36,18982,17.19,73662.8,2.21,-14.55,-11.01,0,*72
1498935793.59,18983,17.19,73664.5,2.23,-14.51,-10.85,0,*78
1498935794.84,18984,17.19,73666.5,2.23,-14.43,-10.75,0,*73
1498935796.05,18985,17.19,73668.3,2.23,-14.37,-10.57,0,*71
1498935797.29,18986,17.19,73668.8,2.21,-14.29,-10.35,0,*7B
1498935798.53,18987,17.19,73670.8,2.25,-14.23,-10.27,0,*77
1498935799.73,18988,17.19,73664.8,2.23,-14.23,-10.09,0,*72
1498935800.94,18989,17.19,73664.3,2.23,-14.23,-10.05,0,*7F
1498935802.17,18990,17.19,73664.8,2.25,-14.19,-9.75,0,*47
1498935803.38,18991,17.19,73662.8,2.23,-14.15,-9.67,0,*4F
1498935804.6,18992,17.19,73664.0,2.23,-14.15,-9.41,0,*48
1498935805.81,18993,17.19,73664.0,2.23,-14.15,-9.23,0,*4D
1498935807.03,18994,17.19,73666.0,2.23,-13.97,-9.05,0,*43
1498935808.28,18995,17.19,73660.3,2.23,-13.97,-8.81,0,*4F
1498935809.5,18996,17.19,73662.5,2.23,-13.83,-8.67,0,*41
1498935810.71,18997,17.19,73662.3,2.25,-13.69,-8.55,0,*43
1498935811.9,18998,17.19,73656.0,2.23,-13.47,-8.29,0,*4D
1498935813.15,18999,17.19,73664.3,2.25,-13.37,-8.25,0,*41
1498935814.37,19000,17.19,73662.3,2.23,-13.29,-8.17,0,*41
1498935815.58,19001,17.19,73666.0,2.23,-13.15,-8.03,0,*4A
1498935816.8,19002,17.19,73666.0,2.25,-12.97,-7.83,0,*43
1498935818.03,19003,17.19,73658.8,2.23,-12.97,-7.77,0,*4F
1498935819.27,19004,17.19,73660.5,2.23,-12.71,-7.65,0,*43
1498935820.49,19005,17.19,73660.5,2.23,-12.65,-7.53,0,*42
1498935821.73,19006,17.19,73658.8,2.25,-12.39,-7.31,0,*4A
1498935822.98,19007,17.19,73662.5,2.25,-12.25,-7.31,0,*46
1498935824.23,19008,17.19,73662.3,2.25,-11.97,-7.19,0,*49
1498935825.46,19009,17.19,73662.3,2.23,-11.89,-7.11,0,*49
1498935826.73,19010,17.19,73662.0,2.25,-11.55,-6.93,0,*4D
1498935828.0,19011,17.19,73660.3,2.25,-11.51,-6.93,0,*48
1498935829.24,19012,17.19,73658.3,2.23,-11.33,-6.93,0,*49
1498935830.44,19013,17.19,73654.8,2.23,-11.15,-6.85,0,*4B
1498935831.63,19014,17.19,73658.3,2.23,-10.93,-6.85,0,*43
1498935832.88,19015,17.19,73662.5,2.23,-10.75,-6.93,0,*4D
1498935834.1,19016,17.19,73658.8,2.25,-10.57,-6.89,0,*43
1498935835.32,19017,17.19,73660.5,2.23,-10.57,-6.93,0,*4F
1498935836.54,19018,17.19,73664.5,2.23,-10.35,-6.93,0,*44
1498935837.76,19019,17.19,73660.8,2.23,-10.19,-6.93,0,*4B
1498935838.98,19020,17.19,73662.3,2.23,-10.23,-7.05,0,*46
1498935840.19,19021,17.19,73662.8,2.23,-10.19,-7.05,0,*4E
1498935841.42,19022,17.19,73662.0,2.25,-10.05,-7.05,0,*46
1498935842.66,19023,17.19,73660.3,2.25,-10.05,-7.05,0,*47
1498935843.87,19024,17.19,73658.8,2.23,-10.05,-7.27,0,*46
1498935845.08,19025,17.19,73656.8,2.23,-10.01,-7.31,0,*44
1498935846.29,19026,17.19,73662.5,2.27,-9.89,-7.27,0,*7C
1498935847.54,19027,17.19,73662.5,2.25,-9.71,-7.27,0,*78
1498935848.8,19028,17.19,73660.3,2.25,-9.61,-7.27,0,*76
1498935850.06,19029,17.19,73666.0,2.25,-9.57,-7.27,0,*72
1498935851.31,19030,17.19,73662.5,2.25,-9.31,-7.27,0,*7A
1498935852.53,19031,17.19,73664.0,2.25,-9.23,-7.19,0,*75
1498935853.75,19032,17.19,73666.0,2.25,-9.19,-7.19,0,*7F
1498935854.96,19033,17.19,73668.0,2.27,-9.19,-7.05,0,*71
1498935856.18,19034,17.19,73664.3,2.25,-9.23,-7.11,0,*78
1498935857.46,19035,17.19,73666.0,2.25,-9.15,-6.93,0,*77
1498935858.67,19036,17.19,73664.8,2.23,-9.19,-6.93,0,*7E
1498935859.9,19037,17.19,73662.8,2.23,-9.15,-6.85,0,*74
1498935861.12,19038,17.19,73662.8,2.25,-9.19,-6.81,0,*75
1498935862.34,19039,17.19,73662.0,2.25,-9.23,-6.89,0,*75
1498935863.56,19040,17.19,73662.0,2.25,-9.23,-6.81,0,*73
1498935864.78,19041,17.19,73664.3,2.23,-9.15,-6.85,0,*75
1498935866.03,19042,17.19,73662.8,2.25,-9.15,-6.77,0,*7D
1498935867.25,19043,17.19,73668.3,2.25,-9.05,-6.77,0,*7D
1498935868.5,19044,17.19,73670.3,2.25,-9.15,-6.77,0,*7B
1498935869.7,19045,17.19,73672.5,2.23,-9.19,-6.85,0,*7D
1498935870.89,19046,17.19,73668.0,2.23,-9.19,-6.85,0,*7E
1498935872.1,19047,17.19,73672.3,2.23,-9.27,-6.93,0,*75
1498935873.32,19048,17.19,73672.8,2.25,-9.23,-6.89,0,*73
1498935874.56,19049,17.19,73672.5,2.23,-9.37,-6.93,0,*7A
1498935875.79,19050,17.19,73668.5,2.23,-9.53,-7.05,0,*7E
1498935877.06,19051,17.19,73668.0,2.25,-9.37,-7.01,0,*7F
1498935878.3,19052,17.19,73674.0,2.25,-9.45,-7.15,0,*7C
1498935879.57,19053,17.19,73670.5,2.25,-9.61,-7.27,0,*7A
1498935880.78,19054,17.19,73670.3,2.23,-9.75,-7.27,0,*7E
1498935882.04,19055,17.19,73668.0,2.25,-9.83,-7.31,0,*77
1498935883.28,19056,17.19,73662.3,2.25,-10.01,-7.39,0,*4E
1498935884.51,19057,17.19,73658.5,2.23,-10.19,-7.39,0,*40
1498935885.73,19058,17.19,73648.8,2.23,-10.35,-7.35,0,*4D
1498935886.95,19059,17.19,73650.0,2.23,-10.57,-7.35,0,*48
1498935888.21,19060,17.19,73644.0,2.25,-10.67,-7.15,0,*45
1498935889.45,19061,17.19,73640.8,2.23,-10.71,-7.05,0,*44
1498935890.66,19062,17.19,73640.8,2.23,-10.85,-6.97,0,*46
1498935891.89,19063,17.19,73634.3,2.25,-10.85,-6.81,0,*46
1498935893.1,19064,17.19,73640.0,2.25,-10.89,-6.69,0,*4B
1498935894.33,19065,17.19,73644.8,2.25,-10.89,-6.55,0,*45
1498935895.53,19066,17.19,73648.3,2.27,-10.97,-6.39,0,*41
1498935896.76,19067,17.19,73648.0,2.25,-10.97,-6.35,0,*4E
1498935897.97,19068,17.19,73644.8,2.25,-10.89,-6.39,0,*42
1498935899.2,19069,17.19,73652.5,2.23,-10.93,-6.19,0,*4C
1498935900.42,19070,17.19,73652.0,2.25,-10.89,-6.09,0,*48
1498935901.61,19071,17.19,73654.3,2.27,-10.85,-5.97,0,*43
1498935902.82,19072,17.19,73652.0,2.25,-10.85,-5.97,0,*42
1498935904.05,19073,17.19,73662.0,2.23,-10.85,-5.85,0,*46
1498935905.29,19074,17.19,73654.3,2.25,-10.85,-5.73,0,*4E
1498935906.51,19075,17.19,73662.0,2.27,-10.85,-5.69,0,*46
1498935907.76,19076,17.19,73654.5,2.25,-10.85,-5.61,0,*4F
1498935908.99,19077,17.19,73658.3,2.25,-10.85,-5.55,0,*49
1498935910.18,19078,17.19,73660.3,2.23,-10.85,-5.51,0,*44
1498935911.37,19079,17.19,73658.0,2.23,-10.85,-5.47,0,*42
1498935912.62,19080,17.19,73660.3,2.25,-10.79,-5.43,0,*45
1498935913.87,19081,17.19,73660.8,2.25,-10.79,-5.35,0,*45
1498935915.11,19082,17.19,73664.3,2.25,-10.79,-5.35,0,*46
1498935916.36,19083,17.19,73658.0,2.25,-10.79,-5.35,0,*47
1498935917.61,19084,17.19,73662.8,2.25,-10.71,-5.35,0,*48
1498935918.86,19085,17.19,73662.5,2.25,-10.71,-5.35,0,*49
1498935920.08,19086,17.19,73664.3,2.23,-10.75,-5.39,0,*44
1498935921.33,19087,17.19,73660.8,2.25,-10.71,-5.43,0,*4A
1498935922.57,19088,17.19,73660.8,2.25,-10.71,-5.43,0,*45
1498935923.82,19089,17.19,73656.8,2.25,-10.71,-5.47,0,*40
1498935925.07,19090,17.19,73660.5,2.23,-10.75,-5.65,0,*4A
1498935926.32,19091,17.19,73662.8,2.27,-10.79,-5.69,0,*4F
1498935927.56,19092,17.19,73662.0,2.27,-10.79,-5.77,0,*43
1498935928.83,19093,17.19,73662.5,2.25,-10.71,-5.73,0,*4C
1498935930.11,19094,17.19,73656.3,2.25,-10.71,-5.77,0,*4F
1498935931.35,19095,17.19,73656.0,2.25,-10.79,-5.97,0,*48
1498935932.6,19096,17.19,73652.5,2.25,-10.71,-5.97,0,*43
1498935933.84,19097,17.19,73658.8,2.25,-10.79,-6.01,0,*46
1498935935.08,19098,17.19,73654.0,2.25,-10.79,-6.09,0,*41
1498935936.35,19099,17.19,73654.0,2.25,-10.71,-6.23,0,*40
1498935937.62,19100,17.19,73652.3,2.25,-10.71,-6.23,0,*41
1498935938.9,19101,17.19,73652.8,2.25,-10.71,-6.27,0,*44
1498935940.15,19102,17.19,73658.3,2.25,-10.71,-6.35,0,*44
1498935941.4,19103,17.19,73656.3,2.25,-10.79,-6.47,0,*48
1498935942.65,19104,17.19,73662.3,2.25,-10.71,-6.51,0,*40
1498935943.92,19105,17.19,73660.0,2.25,-10.71,-6.63,0,*40
1498935945.14,19106,17.19,73662.8,2.23,-10.71,-6.73,0,*44
1498935946.37,19107,17.19,73662.0,2.25,-10.57,-6.77,0,*43
1498935947.62,19108,17.19,73660.0,2.25,-10.67,-6.77,0,*4F
1498935948.87,19109,17.19,73662.8,2.25,-10.67,-6.77,0,*4E
1498935950.09,19110,17.19,73660.5,2.25,-10.53,-6.89,0,*40
1498935951.33,19111,17.19,73660.3,2.25,-10.53,-6.93,0,*4A
1498935952.55,19112,17.19,73668.8,2.23,-10.57,-6.93,0,*4B
1498935953.76,19113,17.19,73664.8,2.23,-10.45,-6.93,0,*49
1498935955.01,19114,17.19,73664.3,2.25,-10.31,-7.01,0,*41
1498935956.26,19115,17.19,73664.0,2.25,-10.31,-7.01,0,*40
1498935957.49,19116,17.19,73662.0,2.25,-10.27,-7.05,0,*40
1498935958.72,19117,17.19,73660.0,2.25,-10.19,-7.15,0,*4D
1498935959.96,19118,17.19,73658.5,2.25,-10.19,-7.05,0,*43
1498935961.2,19119,17.19,73664.3,2.25,-10.05,-7.05,0,*4F
1498935962.41,19120,17.19,73662.8,2.25,-9.97,-7.15,0,*77
1498935963.6,19121,17.19,73664.0,2.23,-10.01,-7.19,0,*4B
1498935964.81,19122,17.19,73664.0,2.25,-9.89,-7.15,0,*7A
1498935966.0,19123,17.19,73662.5,2.23,-9.93,-7.11,0,*72
1498935967.21,19124,17.19,73660.0,2.25,-9.89,-7.15,0,*7C
1498935968.46,19125,17.19,73660.0,2.25,-9.83,-7.05,0,*76
1498935969.72,19126,17.19,73658.8,2.25,-9.83,-7.05,0,*75
1498935970.97,19127,17.19,73652.5,2.25,-9.83,-7.05,0,*74
1498935972.22,19128,17.19,73654.3,2.25,-9.83,-7.05,0,*7B
1498935973.48,19129,17.19,73660.5,2.25,-9.83,-7.01,0,*7E
1498935974.68,19130,17.19,73656.3,2.23,-9.93,-7.05,0,*75
1498935975.91,19131,17.19,73658.8,2.23,-9.83,-7.01,0,*71
1498935977.15,19132,17.19,73658.3,2.25,-9.89,-6.93,0,*74
1498935978.41,19133,17.19,73656.5,2.25,-9.83,-6.93,0,*7F
1498935979.64,19134,17.19,73656.0,2.25,-9.97,-7.01,0,*77
1498935980.88,19135,17.19,73658.3,2.25,-9.97,-7.01,0,*76
1498935982.11,19136,17.19,73660.3,2.25,-9.97,-7.01,0,*75
1498935983.35,19137,17.19,73660.3,2.25,-10.01,-7.01,0,*43
1498935984.55,19138,17.19,73660.3,2.23,-10.19,-7.19,0,*4A
1498935985.78,19139,17.19,73656.5,2.25,-10.19,-7.19,0,*4D
1498935987.01,19140,17.19,73658.3,2.25,-10.19,-7.19,0,*43
1498935988.23,19141,17.19,73656.0,2.25,-10.27,-7.19,0,*4F
1498935989.45,19142,17.19,73668.3,2.27,-10.31,-7.27,0,*44
1498935990.68,19143,17.19,73664.5,2.27,-10.31,-7.27,0,*45
1498935991.93,19144,17.19,73660.5,2.27,-10.41,-7.27,0,*45
1498935993.15,19145,17.19,73662.8,2.27,-10.31,-7.31,0,*44
1498935994.42,19146,17.19,73662.8,2.25,-10.41,-7.31,0,*42
1498935995.64,19147,17.19,73666.0,2.23,-10.45,-7.35,0,*45
1498935996.89,19148,17.19,73670.8,2.25,-10.45,-7.39,0,*40
1498935998.13,19149,17.19,73668.0,2.25,-10.45,-7.31,0,*49
1498935999.38,19150,17.19,73668.5,2.25,-10.45,-7.39,0,*49
1498936000.62,19151,17.19,73666.8,2.25,-10.53,-7.31,0,*47
1498936001.86,19152,17.19,73668.5,2.25,-10.53,-7.31,0,*44
1498936003.08,19153,17.19,73664.8,2.27,-10.57,-7.39,0,*4B
1498936004.31,19154,17.19,73666.8,2.27,-10.57,-7.39,0,*4C
1498936005.55,19155,17.13,73664.3,2.25,-10.57,-7.39,0,*4F
1498936006.8,19156,17.19,73666.0,2.25,-10.57,-7.31,0,*44
1498936008.02,19157,17.19,73664.5,2.23,-10.57,-7.31,0,*43
1498936009.27,19158,17.19,73664.0,2.25,-10.57,-7.31,0,*4A
1498936010.51,19159,17.19,73660.8,2.25,-10.45,-7.31,0,*48
1498936011.75,19160,17.19,73660.8,2.25,-10.53,-7.31,0,*45
1498936012.98,19161,17.13,73662.0,2.25,-10.45,-7.19,0,*49
1498936014.19,19162,17.19,73662.0,2.25,-10.53,-7.19,0,*4D
1498936015.42,19163,17.19,73664.8,2.25,-10.45,-7.19,0,*4B
1498936016.64,19164,17.13,73664.3,2.25,-10.45,-7.15,0,*40
1498936017.86,19165,17.19,73670.3,2.25,-10.45,-7.19,0,*4D
1498936019.08,19166,17.19,73666.8,2.25,-10.45,-7.15,0,*42
1498936020.3,19167,17.19,73664.5,2.25,-10.53,-7.15,0,*44
1498936021.52,19168,17.19,73666.8,2.25,-10.45,-7.15,0,*4C
1498936022.76,19169,17.19,73666.5,2.23,-10.41,-7.05,0,*4E
1498936024.03,19170,17.19,73664.3,2.25,-10.41,-7.01,0,*44
1498936025.27,19171,17.19,73666.3,2.25,-10.31,-6.93,0,*48
1498936026.55,19172,17.19,73670.5,2.25,-10.41,-7.01,0,*46
1498936027.82,19173,17.19,73670.3,2.25,-10.41,-6.93,0,*4D
1498936029.09,19174,17.13,73662.3,2.25,-10.41,-6.93,0,*4A
1498936030.34,19175,17.13,73660.5,2.25,-10.41,-6.89,0,*40
1498936031.59,19176,17.19,73664.3,2.25,-10.41,-6.81,0,*4B
1498936032.84,19177,17.19,73666.5,2.25,-10.41,-6.77,0,*43
1498936034.03,19178,17.13,73662.0,2.23,-10.45,-6.73,0,*4A
1498936035.25,19179,17.19,73668.8,2.25,-10.31,-6.77,0,*4A
1498936036.45,19180,17.19,73662.5,2.23,-10.49,-6.73,0,*41
1498936037.69,19181,17.19,73662.8,2.25,-10.41,-6.69,0,*45
1498936038.9,19182,17.19,73662.8,2.25,-10.45,-6.69,0,*42
1498936040.18,19183,17.19,73666.3,2.25,-10.41,-6.63,0,*4D
1498936041.4,19184,17.19,73660.0,2.23,-10.41,-6.69,0,*46
1498936042.64,19185,17.19,73660.0,2.25,-10.53,-6.63,0,*48
1498936043.85,19186,17.19,73660.0,2.27,-10.53,-6.63,0,*49
1498936045.05,19187,17.19,73660.5,2.23,-10.57,-6.59,0,*41
1498936046.27,19188,17.19,73662.3,2.25,-10.45,-6.47,0,*44
1498936047.49,19189,17.13,73660.8,2.25,-10.45,-6.47,0,*45
1498936048.69,19190,17.19,73662.3,2.23,-10.57,-6.51,0,*4F
1498936049.91,19191,17.19,73664.3,2.25,-10.53,-6.39,0,*42
1498936051.1,19192,17.13,73660.5,2.27,-10.45,-6.39,0,*44
1498936052.32,19193,17.19,73668.5,2.25,-10.45,-6.35,0,*4B
1498936053.59,19194,17.19,73658.5,2.25,-10.41,-6.27,0,*4B
1498936054.81,19195,17.19,73656.0,2.25,-10.31,-6.13,0,*4A
1498936056.03,19196,17.19,73648.0,2.25,-10.31,-6.09,0,*42
1498936057.25,19197,17.19,73654.8,2.25,-10.19,-6.01,0,*41
1498936058.48,19198,17.19,73654.3,2.25,-10.19,-5.97,0,*42
1498936059.7,19199,17.19,73654.0,2.25,-10.19,-5.97,0,*43
1498936060.95,19200,17.19,73656.0,2.25,-10.19,-5.89,0,*4F
1498936062.2,19201,17.19,73660.3,2.25,-10.05,-5.85,0,*4F
1498936063.45,19202,17.19,73656.0,2.25,-10.15,-5.85,0,*4D
1498936064.7,19203,17.13,73648.8,2.25,-10.15,-5.77,0,*41
1498936065.93,19204,17.19,73654.8,2.25,-10.05,-5.73,0,*43
1498936067.17,19205,17.13,73652.3,2.25,-10.05,-5.73,0,*42
1498936068.39,19206,17.13,73652.3,2.27,-10.01,-5.61,0,*44
1498936069.65,19207,17.13,73652.8,2.25,-10.15,-5.69,0,*4A
1498936070.86,19208,17.19,73658.3,2.27,-10.05,-5.69,0,*46
1498936072.09,19209,17.19,73656.3,2.27,-10.01,-5.61,0,*4B
1498936073.31,19210,17.19,73654.3,2.27,-10.01,-5.61,0,*43
1498936074.52,19211,17.13,73648.8,2.29,-9.93,-5.51,0,*7C
1498936075.71,19212,17.13,73656.8,2.27,-9.97,-5.43,0,*76
1498936076.94,19213,17.19,73656.0,2.25,-9.83,-5.43,0,*70
1498936078.18,19214,17.13,73658.0,2.25,-9.83,-5.43,0,*77
1498936079.37,19215,17.13,73662.5,2.27,-9.71,-5.35,0,*78
1498936080.6,19216,17.19,73664.0,2.27,-9.75,-5.23,0,*78
1498936081.84,19217,17.13,73660.8,2.27,-9.61,-5.23,0,*7C
1498936083.08,19218,17.13,73662.3,2.27,-9.57,-5.23,0,*76
1498936084.32,19219,17.13,73664.3,2.27,-9.57,-5.31,0,*74
1498936085.57,19220,17.19,73666.8,2.27,-9.57,-5.23,0,*7D
1498936086.84,19221,17.13,73666.8,2.25,-9.45,-5.31,0,*7E
1498936088.11,19222,17.19,73670.3,2.25,-9.37,-5.31,0,*78
1498936089.36,19223,17.13,73662.5,2.25,-9.31,-5.31,0,*7F
1498936090.58,19224,17.13,73662.0,2.27,-9.31,-5.23,0,*79
1498936091.81,19225,17.19,73666.3,2.27,-9.23,-5.23,0,*7B
1498936093.03,19226,17.13,73662.3,2.27,-9.19,-5.31,0,*72
1498936094.26,19227,17.13,73660.0,2.27,-9.15,-5.35,0,*7B
1498936095.5,19228,17.13,73660.3,2.29,-9.11,-5.39,0,*72
1498936096.7,19229,17.13,73654.8,2.27,-9.05,-5.43,0,*75
1498936097.92,19230,17.19,73654.5,2.29,-8.97,-5.51,0,*7A
1498936099.13,19231,17.13,73652.5,2.29,-8.97,-5.51,0,*7B
1498936100.36,19232,17.19,73654.8,2.27,-8.93,-5.69,0,*79
1498936101.58,19233,17.13,73656.0,2.27,-8.89,-5.69,0,*73
1498936102.83,19234,17.13,73654.5,2.27,-8.81,-5.69,0,*7C
1498936104.04,19235,17.13,73660.5,2.27,-8.75,-5.73,0,*7D
1498936105.28,19236,17.19,73664.0,2.25,-8.75,-5.73,0,*7C
1498936106.5,19237,17.13,73660.3,2.27,-8.55,-5.77,0,*79
1498936107.72,19238,17.19,73666.3,2.27,-8.55,-5.89,0,*77
1498936108.92,19239,17.13,73660.8,2.27,-8.63,-6.01,0,*70